TimeEST,TemperatureF,Dew PointF,Humidity,Sea Level PressureIn,VisibilityMPH,Wind Direction,Wind SpeedMPH,Gust SpeedMPH,PrecipitationIn,Events,Conditions,WindDirDegrees,DateUTC
7:15 AM,28.4,28.4,100,30.31,9.0,Calm,Calm,-,N/A,,Clear,0,2012-11-15 12:15:00
7:35 AM,30.2,28.4,93,30.30,10.0,Calm,Calm,-,N/A,,Clear,0,2012-11-15 12:35:00
7:55 AM,30.2,28.4,93,30.30,8.0,East,3.5,-,N/A,,Clear,100,2012-11-15 12:55:00
8:35 AM,30.2,28.4,93,30.31,10.0,Calm,Calm,-,N/A,,Clear,0,2012-11-15 13:35:00
8:55 AM,32.0,30.2,93,30.31,10.0,Calm,Calm,-,N/A,,Clear,0,2012-11-15 13:55:00
9:15 AM,32.0,28.4,87,30.32,10.0,Calm,Calm,-,N/A,,Clear,0,2012-11-15 14:15:00
9:35 AM,33.8,28.4,81,30.32,10.0,Calm,Calm,-,N/A,,Clear,0,2012-11-15 14:35:00
9:55 AM,37.4,30.2,75,30.33,10.0,Calm,Calm,-,N/A,,Clear,0,2012-11-15 14:55:00
10:15 AM,39.2,28.4,65,30.33,10.0,Calm,Calm,-,N/A,,Clear,0,2012-11-15 15:15:00
10:35 AM,41.0,30.2,65,30.33,10.0,Calm,Calm,-,N/A,,Clear,0,2012-11-15 15:35:00
10:55 AM,42.8,28.4,57,30.32,10.0,NNW,3.5,-,N/A,,Clear,340,2012-11-15 15:55:00
11:15 AM,42.8,28.4,57,30.31,10.0,NNW,3.5,-,N/A,,Clear,330,2012-11-15 16:15:00
11:35 AM,44.6,28.4,53,30.31,10.0,NNE,5.8,-,N/A,,Clear,30,2012-11-15 16:35:00
11:55 AM,42.8,28.4,57,30.30,10.0,North,3.5,-,N/A,,Clear,10,2012-11-15 16:55:00
12:15 PM,44.6,30.2,57,30.30,10.0,North,3.5,-,N/A,,Clear,350,2012-11-15 17:15:00
12:35 PM,44.6,28.4,53,30.29,10.0,Calm,Calm,-,N/A,,Clear,0,2012-11-15 17:35:00
12:55 PM,44.6,28.4,53,30.29,10.0,NW,3.5,-,N/A,,Clear,310,2012-11-15 17:55:00
1:15 PM,46.4,30.2,53,30.28,10.0,WNW,3.5,-,N/A,,Clear,300,2012-11-15 18:15:00
1:35 PM,46.4,30.2,53,30.28,10.0,Calm,Calm,-,N/A,,Clear,0,2012-11-15 18:35:00
1:55 PM,48.2,30.2,50,30.28,10.0,West,4.6,-,N/A,,Clear,260,2012-11-15 18:55:00
2:15 PM,46.4,30.2,53,30.27,10.0,Calm,Calm,-,N/A,,Clear,0,2012-11-15 19:15:00
2:35 PM,46.4,28.4,50,30.27,10.0,WNW,3.5,-,N/A,,Clear,290,2012-11-15 19:35:00
2:55 PM,46.4,28.4,50,30.27,10.0,Calm,Calm,-,N/A,,Clear,0,2012-11-15 19:55:00
3:15 PM,48.2,28.4,46,30.27,10.0,Calm,Calm,-,N/A,,Clear,0,2012-11-15 20:15:00
3:35 PM,46.4,28.4,50,30.26,10.0,North,5.8,-,N/A,,Clear,350,2012-11-15 20:35:00
3:55 PM,46.4,28.4,50,30.27,10.0,Calm,Calm,-,N/A,,Clear,0,2012-11-15 20:55:00
4:15 PM,46.4,28.4,50,30.27,10.0,Calm,Calm,-,N/A,,Clear,0,2012-11-15 21:15:00
4:35 PM,44.6,28.4,53,30.27,10.0,North,5.8,-,N/A,,Clear,360,2012-11-15 21:35:00
4:55 PM,44.6,28.4,53,30.26,10.0,North,5.8,-,N/A,,Clear,10,2012-11-15 21:55:00
5:15 PM,44.6,28.4,53,30.26,10.0,Calm,Calm,-,N/A,,Clear,0,2012-11-15 22:15:00
5:35 PM,44.6,28.4,53,30.26,10.0,North,3.5,-,N/A,,Clear,10,2012-11-15 22:35:00
5:55 PM,42.8,28.4,57,30.27,10.0,NNE,3.5,-,N/A,,Clear,20,2012-11-15 22:55:00
6:15 PM,42.8,28.4,57,30.27,10.0,Calm,Calm,-,N/A,,Clear,0,2012-11-15 23:15:00
6:35 PM,42.8,28.4,57,30.28,10.0,Calm,Calm,-,N/A,,Clear,0,2012-11-15 23:35:00
6:55 PM,42.8,28.4,57,30.28,10.0,Calm,Calm,-,N/A,,Clear,0,2012-11-15 23:55:00
7:15 PM,41.0,28.4,61,30.28,10.0,Calm,Calm,-,N/A,,Clear,0,2012-11-16 00:15:00
7:35 PM,39.2,28.4,65,30.28,10.0,Calm,Calm,-,N/A,,Clear,0,2012-11-16 00:35:00
7:55 PM,39.2,28.4,65,30.28,10.0,Calm,Calm,-,N/A,,Clear,0,2012-11-16 00:55:00
8:35 PM,37.4,30.2,75,30.28,10.0,Calm,Calm,-,N/A,,Clear,0,2012-11-16 01:35:00
8:55 PM,37.4,28.4,70,30.28,10.0,Calm,Calm,-,N/A,,Clear,0,2012-11-16 01:55:00
9:15 PM,37.4,28.4,70,30.29,10.0,Calm,Calm,-,N/A,,Clear,0,2012-11-16 02:15:00
9:35 PM,35.6,28.4,75,30.29,10.0,Calm,Calm,-,N/A,,Clear,0,2012-11-16 02:35:00
9:55 PM,35.6,28.4,75,30.29,10.0,Calm,Calm,-,N/A,,Clear,0,2012-11-16 02:55:00
10:15 PM,35.6,28.4,75,30.29,10.0,Calm,Calm,-,N/A,,Clear,0,2012-11-16 03:15:00
10:35 PM,33.8,30.2,87,30.29,10.0,Calm,Calm,-,N/A,,Clear,0,2012-11-16 03:35:00
10:55 PM,32.0,30.2,93,30.29,10.0,Calm,Calm,-,N/A,,Clear,0,2012-11-16 03:55:00
11:15 PM,33.8,30.2,87,30.29,10.0,Calm,Calm,-,N/A,,Clear,0,2012-11-16 04:15:00
11:35 PM,32.0,30.2,93,30.29,10.0,Calm,Calm,-,N/A,,Clear,0,2012-11-16 04:35:00
11:55 PM,32.0,30.2,93,30.30,10.0,Calm,Calm,-,N/A,,Clear,0,2012-11-16 04:55:00